Regional Weather Roundup
Issued by NWS

Home | Current Version | Previous Version | Text Only | Print | Product List | Glossary Off
Versions: 1 2 3 4 5 6 7 8 9 10 11 12 13 14 15 16 17 18 19 20 21 22 23 24 25 26 27 28 29 30 31 32 33 34 35 36 37 38 39 40 41 42 43 44 45 46 47 48 49 50

000
ASUS43 KMKX 042120
RWRWI

WISCONSIN REGIONAL WEATHER ROUNDUP
NATIONAL WEATHER SERVICE MILWAUKEE/SULLIVAN WI
300 PM CST WED MAR 04 2015

NOTE: "FAIR" INDICATES FEW OR NO CLOUDS BELOW 12,000 FEET WITH NO
SIGNIFICANT WEATHER AND/OR OBSTRUCTIONS TO VISIBILITY.

WIZ001-002-006>008-014>016-023>028-042200-
NORTHWEST WISCONSIN

CITY           SKY/WX    TMP DP  RH WIND       PRES   REMARKS
SUPERIOR ARPT  MOSUNNY    5 -12  45 NW14G23   30.21R WCI -12
ASHLAND        MOSUNNY    7 -11  43 W15G28    30.16R WCI -10
HAYWARD        CLOUDY     6 -12  43 W12G20    30.13R WCI  -9
SIREN          SUNNY      7 -12  40 W16       30.19R WCI -11
CUMBERLAND     MOSUNNY    7 -11  43 W16G25    30.15R WCI -11
RICE LAKE      SUNNY      9 -11  41 W17       30.18R WCI -10
CHETEK         MOSUNNY    9 -10  41 W13G18    30.16R WCI  -6
LADYSMITH      MOSUNNY    9  -9  44 W20       30.14R WCI -10
EAU CLAIRE     SUNNY     11  -9  40 NW18G25   30.18R WCI  -7
MENOMONIE      SUNNY     12  -8  39 W15G24    30.19S WCI  -4
NEW RICHMOND   SUNNY     10  -9  43 NW18      30.20R WCI  -9
OSCEOLA        SUNNY     10  -9  42 NW12G22   30.25R WCI  -5
$$

WIZ003>005-009-010-017-018-042200-
NORTH CENTRAL WISCONSIN

CITY           SKY/WX    TMP DP  RH WIND       PRES   REMARKS
MANITOWISH WTR CLOUDY     2  -8  62 NW15      30.04R HAZE    WCI -17
ARBOR VITAE    MOSUNNY    6  -8  52 W15G24    30.03R WCI -12
WOODRUFF       MOSUNNY    6  -8  52 W15G24    30.03R WCI -12
RHINELANDER    CLOUDY     5 -10  50 NW18G28   30.02R WCI -15
EAGLE RIVER    MOSUNNY    4 -12  46 NW18G24   30.01R WCI -16
LAND O LAKES   PTSUNNY    5 -12  46 NW12G18   30.01R WCI -11
PHILLIPS       PTSUNNY    4  -9  54 NW14G20   30.07R WCI -13
TOMAHAWK       MOSUNNY    8 -12  39 NW14G24   30.05R WCI  -9
MEDFORD        SUNNY      8 -11  42 W20G26    30.07R WCI -11
MERRILL        SUNNY     10 -11  37 W17G23    30.05R WCI  -7
$$

WIZ029-030-035-036-043>047-042200-
CENTRAL WISCONSIN

CITY           SKY/WX    TMP DP  RH WIND       PRES   REMARKS
WAUSAU         SUNNY      9  -8  46 W23G29    30.07R WCI -11
MOSINEE        MOSUNNY    9  -9  43 W21G30    30.09R WCI -11
MARSHFIELD     MOSUNNY   10  -8  44 NW17G26   30.11R WCI  -8
STEVENS POINT  SUNNY      9 -13  36 W17G26    30.12R WCI  -9
WAUPACA        SUNNY     16  -9  32 NW21G28   30.13R WCI  -1
WAUTOMA        MOSUNNY   16  -5  39 W17G23    30.14R WCI   0
WISC RAPIDS    SUNNY     13  -9  37 NW15G28   30.14R WCI  -3
CAMP DOUGLAS   MOSUNNY   14  -4  44 W15       30.16R WCI  -1
$$

WIZ011>013-019>022-031-037>040-048>050-042200-
NORTHEAST WISCONSIN

CITY           SKY/WX    TMP DP  RH WIND       PRES   REMARKS
ANTIGO         MOSUNNY    8  -9  46 W17G30    30.02R WCI -10
SHAWANO        MOSUNNY   15  -9  33 W15G22    30.09R WCI   0
OCONTO         CLOUDY    15  -8  35 W16G28    30.07R WCI  -1
STURGEON BAY   SUNNY     16  -8  35 W17G23    30.07R WCI   0
GREEN BAY      PTSUNNY   14  -4  44 W25G35    30.10R WCI  -5
MANITOWOC      SUNNY     16  -4  41 W23G33    30.09S WCI  -2
APPLETON       MOSUNNY   14  -9  34 W23G31    30.10R WCI  -5
CLINTONVILLE   MOSUNNY   14  -9  34 W20G30    30.11R WCI  -3
OSHKOSH        MOSUNNY   16  -2  45 NW16G26   30.11R WCI   1
$$

WIZ032>034-041-042-053>061-042200-
SOUTHWEST WISCONSIN

CITY           SKY/WX    TMP DP  RH WIND       PRES   REMARKS
LA CROSSE      SUNNY     17  -1  45 NW14      30.22R WCI   3
SPARTA         MOSUNNY   16  -5  40 W14G21    30.19R WCI   1
VIROQUA        MOSUNNY   13  -3  47 W13G24    30.15F WCI  -1
BOSCOBEL       SUNNY     17  -5  37 NW8G20    30.22S WCI   7
PRAIRIE DU CHI SUNNY     16  -5  40 W15       30.23F WCI   1
PLATTEVILLE    SUNNY     15   1  53 W15       30.19S WCI   0
$$

WIZ056-057-062-063-064-067-068-042200-
SOUTH CENTRAL WISCONSIN

CITY           SKY/WX    TMP DP  RH WIND       PRES   REMARKS
REEDSBURG      SUNNY     16  -3  43 NW12G20   30.15F WCI   2
BARABOO/DELLS  SUNNY     15  -6  38 W16G26    30.14F WCI  -1
LONE ROCK      SUNNY     18  -5  36 NW21      30.19S WCI   1
MINERAL POINT  SUNNY     19  -4  35 W15G21    30.16S WCI   5
MADISON        MOSUNNY   18  -5  36 NW14      30.16R WCI   4
MIDDLETON      SUNNY     20  -6  31 NW18G25   30.16S WCI   4
WATERTOWN      MOSUNNY   18   0  44 W12       30.15R WCI   6
MONROE         SUNNY     19   1  45 W13       30.15S WCI   7
JANESVILLE     SUNNY     19   0  42 NW14      30.17R WCI   6
$$

WIZ051-052-058>065-066-070>072-042200-
SOUTHEAST WISCONSIN

CITY           SKY/WX    TMP DP  RH WIND       PRES   REMARKS
MILWAUKEE      MOSUNNY   20  -4  34 NW14G24   30.14S WCI   7
WAUKESHA       SUNNY     16  -4  41 W18G25    30.14R WCI  -1
MILWAUKEE/TIMM SUNNY     19  -4  35 NW13G22   30.13S WCI   7
RACINE         SUNNY     20  -3  36 NW14G22   30.16R WCI   7
BURLINGTON     SUNNY     18  -3  41 NW17      30.16R WCI   2
KENOSHA        SUNNY     19   0  43 NW12      30.15R WCI   7
FOND DU LAC    SUNNY     17  -3  41 NW17G26   30.11S WCI   1
SHEBOYGAN      SUNNY     15  -4  42 NW17      30.11R WCI  -1
WEST BEND      MOSUNNY   18  -6  35 W18G24    30.12R WCI   2
JUNEAU         SUNNY     17  -4  40 W16G24    30.13R WCI   2
$$

LSZ147-162-042200-
LAKE SUPERIOR

STATION/POSITION TIME  TEMP    WIND        PRES    WAVE
                       AIR SEA DIR/SP/G            HT/PER
                 (UTC) (F)     (DEG/KT/KT) (MB)    (FT/S)
DEVILS ISLAND    2100    5     280/ 21/ 25 1022.9R
PORT WING        2040    4     290/ 18/ 22 1022.0R
SAXON HARBOR     2000    6     290/ 12/ 17 1021.0R
$$

LMZ867-665-643>646-042200-
LAKE MICHIGAN

STATION/POSITION TIME  TEMP    WIND        PRES    WAVE
                       AIR SEA DIR/SP/G            HT/PER
                 (UTC) (F)     (DEG/KT/KT) (MB)    (FT/S)
NORTHPORT PIER   2008   16     290/  5/ 19 1016.9S
SISTER BAY       1928   23     290/ 15/ 17   N/A
KEWAUNEE LAKESHO 2100   15     280/ 12/ 20 1017.8R
SHEBOYGAN LAKESH 2100   15     290/ 18/ 23 1021.5R
PORT WASHINGTON  2020   18     310/ 12/ 22 1020.7S
MILWAUKEE LAKESH 2100   19     300/ 13/ 20   N/A
KENOSHA   LAKESH 2100   18     300/ 14/ 19 1021.3R
$$

TC  - TEMPERATURE IN CELSIUS
VSB - VISIBILITY IN STATUTE MILES
WCI - WIND CHILL INDEX
HX  - HEAT INDEX



USA.gov is the U.S. government's official web portal to all federal, state and local government web resources and services.